Regional Weather Roundup
Issued by NWS Little Rock, AR

Home | Current Version | Previous Version | Text Only | Print | Product List | Glossary Off
Versions: 1 2 3 4 5 6 7 8 9 10 11 12 13 14 15 16 17 18 19 20 21 22 23 24 25 26 27 28 29 30 31 32 33 34 35 36 37 38 39 40 41 42 43 44 45 46 47 48 49 50

000
ASUS44 KLZK 201805
RWRLZK

WEATHER ROUNDUP FOR ARKANSAS
NATIONAL WEATHER SERVICE LITTLE ROCK AR
1200 PM CST THU NOV 20 2014

NOTE: "FAIR" INDICATES FEW OR NO CLOUDS BELOW 12,000 FEET WITH NO
SIGNIFICANT WEATHER AND/OR OBSTRUCTIONS TO VISIBILITY.

ARZ001-003-010-029-201900-
NORTHWEST ARKANSAS

CITY           SKY/WX    TMP DP  RH WIND       PRES   REMARKS
FAYETTEVILLE   SUNNY     58  33  39 S12       30.14F
6HR MIN TEMP:  21; 6HR MAX TEMP:  58;

FORT SMITH     SUNNY     52  29  41 E14       30.16F
6HR MIN TEMP:  30; 6HR MAX TEMP:  53;

HARRISON       SUNNY     46  24  42 SE7       30.18F
6HR MIN TEMP:  24; 6HR MAX TEMP:  47;

BENTONVILLE    SUNNY     52  25  35 E7        30.16F
6HR MIN TEMP:  27; 6HR MAX TEMP:  52;

ROGERS         SUNNY     50  24  36 SE8       30.15F
6HR MIN TEMP:  28; 6HR MAX TEMP:  50;

SILOAM SPGS    SUNNY     54  28  37 SE8       30.15F
6HR MIN TEMP:  28; 6HR MAX TEMP:  54;

HIGHFILL       SUNNY     53  29  39 SE6       30.14F
6HR MIN TEMP:  24; 6HR MAX TEMP:  53;

SPRINGDALE     MOSUNNY   54  30  40 SE6       30.16F
$$

ARZ004-005-016-201900-
NORTH CENTRAL ARKANSAS

CITY           SKY/WX    TMP DP  RH WIND       PRES   REMARKS
BATESVILLE     SUNNY     48  25  40 E8        30.24F
6HR MIN TEMP:  27; 6HR MAX TEMP:  48;

FLIPPIN        SUNNY     46  19  34 E6        30.21F
6HR MIN TEMP:  21; 6HR MAX TEMP:  46;

MTN HOME       SUNNY     46  21  37 MISG      30.21F
6HR MIN TEMP:  25; 6HR MAX TEMP:  46;

$$

ARZ040-041-201900-
WEST CENTRAL ARKANSAS

CITY           SKY/WX    TMP DP  RH WIND       PRES   REMARKS
MENA           SUNNY     54  36  50 NE5       30.16F
MOUNT IDA      MOSUNNY   52  32  46 VRB6      30.17F
6HR MIN TEMP:  30; 6HR MAX TEMP:  52;

$$

ARZ009-017-025-026-028-201900-
NORTHEAST ARKANSAS

CITY           SKY/WX    TMP DP  RH WIND       PRES   REMARKS
CORNING        FAIR      43  21  42 CALM      30.27F HAZE
JONESBORO      SUNNY     45  21  38 CALM      30.27F
6HR MIN TEMP:  27; 6HR MAX TEMP:  45;

NEWPORT        SUNNY     46  22  39 CALM      30.28F
6HR MIN TEMP:  27; 6HR MAX TEMP:  46;

WALNUT RIDGE   SUNNY     43  16  33 SE6       30.26F
6HR MIN TEMP:  25; 6HR MAX TEMP:  43;

BLYTHEVILLE    SUNNY     48  23  37 S3        30.28F
6HR MIN TEMP:  24; 6HR MAX TEMP:  49;

$$

ARZ022-023-033-042-044-201900-
CENTRAL ARKANSAS

CITY           SKY/WX    TMP DP  RH WIND       PRES   REMARKS
LITTLE ROCK    PTSUNNY   50  28  42 E8        30.24F
6HR MIN TEMP:  33; 6HR MAX TEMP:  50;

N LITTLE ROCK  PTSUNNY   49  31  50 SE8       30.24F
6HR MIN TEMP:  33; 6HR MAX TEMP:  50;

JACKSONVILLE   MOSUNNY   50  28  41 E7        30.23F
6HR MIN TEMP:  27; 6HR MAX TEMP:  50;

SEARCY         MOSUNNY   48  26  42 NE6       30.26F
6HR MIN TEMP:  27; 6HR MAX TEMP:  49;

HOT SPRINGS    SUNNY     51  30  44 SE8       30.21F
6HR MIN TEMP:  37; 6HR MAX TEMP:  51;

RUSSELLVILLE   SUNNY     49  27  42 VRB6      30.21F
6HR MIN TEMP:  26; 6HR MAX TEMP:  49;

CLINTON        CLOUDY    50  28  43 SE7       30.24F
$$

ARZ036-201900-
EAST ARKANSAS

CITY           SKY/WX    TMP DP  RH WIND       PRES   REMARKS
WEST MEMPHIS   SUNNY     49  28  44 VRB3      30.26F
6HR MIN TEMP:  28; 6HR MAX TEMP:  49;

$$

ARZ050-053-066-070-073-201900-
SOUTHWEST ARKANSAS

CITY           SKY/WX    TMP DP  RH WIND       PRES   REMARKS
ARKADELPHIA    CLOUDY    51  38  61 E6        30.22F
6HR MIN TEMP:  35; 6HR MAX TEMP:  51;

CAMDEN         CLOUDY    50  41  71 N5        30.22F HAZE
TEXARKANA      CLOUDY    49  48  97 SE5       30.20S FOG
6HR MIN TEMP:  40; 6HR MAX TEMP:  49;

EL DORADO      CLOUDY    54  48  80 E6        30.21F
6HR MIN TEMP:  38; 6HR MAX TEMP:  54;

DE QUEEN       CLOUDY    51  42  71 E7        30.17F
6HR MIN TEMP:  29; 6HR MAX TEMP:  52;

$$

ARZ056-057-069-201900-
SOUTHEAST ARKANSAS

CITY           SKY/WX    TMP DP  RH WIND       PRES   REMARKS
PINE BLUFF     PTSUNNY   50  31  48 SE5       30.24F
6HR MIN TEMP:  36; 6HR MAX TEMP:  50;

STUTTGART      CLOUDY    48  30  49 E7        30.26F
6HR MIN TEMP:  30; 6HR MAX TEMP:  48;

MONTICELLO     CLOUDY    53  42  66 NE5       30.22F
6HR MIN TEMP:  43; 6HR MAX TEMP:  53;


$$




USA.gov is the U.S. government's official web portal to all federal, state and local government web resources and services.